Location: Monfort
(47.1967°N, 0.2115°W)
Time: 11:55:39
(UTC+00:00)

USA 306 - Pass Details

Date: 24 October 2020
Orbit: 569 x 577 km, 54.0° (Epoch: 22 November)

Event Time Altitude Azimuth Distance (km) Brightness Sun altitude
Rises 19:23:33 0° 300° (WNW) 2,786 7.6 -25.5°
Reaches altitude 10° 19:25:51 10° 304° (NW) 1,884 6.4 -25.9°
Enters shadow 19:29:00 43° 331° (NNW) 808 3.8 -26.4°
